Regan, ND (58477)

2:32 PM CDT on March 23, 2017 (GMT -0500)
136 Ave NW | | Change Station

Elev 1932 ft 46.95 °N, 100.83 °W | Updated 1 second ago

Rain
Rain
36.7 °F
Feels Like 31 °F
N
6.7
Wind Variable Wind from NNE
Gusts 9.8 mph

Today
High -- | Low -- °F
--% Chance of Precip.
Yesterday
High -- | Low -- °F
Precip. -- in
Pressure 29.73 in
Visibility 5.0 miles
Clouds Few 500 ft
Overcast 5500 ft
Windchill 31 °F
Dew Point 36 °F
Humidity 97%
Rainfall 0.46 in
Snow Depth Not available.
7:38 AM 7:59 PM
Waning Crescent, 21% visible
SPECI KBIS 231920Z 00000KT 5SM BR FEW005 OVC055 04/03 A2973 RMK AO2 T00440033
Pressure 29.73 in
Visibility 5.0 miles
Clouds Few 500 ft
Overcast 5500 ft
Windchill 31 °F
Dew Point 36 °F
Humidity 97%
Rainfall 0.46 in
Snow Depth Not available.
7:38 AM 7:59 PM
Waning Crescent, 21% visible
SPECI KBIS 231920Z 00000KT 5SM BR FEW005 OVC055 04/03 A2973 RMK AO2 T00440033

Get Severe Weather Alerts

Thanks for signing up!

Be on the lookout for a verification email in your inbox.

You'll start receiving the daily forecast at 8 AM.

×

10-Day Weather Forecast

Almanac

Astronomy

Mar. 23, 2017 Rise Set
Actual Time
Civil Twilight
Nautical Twilight
Astronomical Twilight
Moon
Length of Visible Light
Length of Day
Tomorrow will be .
, % of the Moon is Illuminated

Today's Extremes

State Highs State Lows

Community

WunderPhotos

Upload Photos

1,962,540 photos uploaded!

WunderBlog® & News

Nearby

Air Quality

  Air Quality AQ Index Pollutant
Not available.

Snow Depth

Station Depth Elevation

Earthquake Activity

City Distance Mag. Time & Date
Minimum magnitude displayed is 2.5.

Earthquake Activity

City Distance Mag. Time & Date
Minimum magnitude displayed is 2.5.

Coastal Water Temperatures

Place Temperature

Stations

Nearby Weather Stations

Station Location Temp. Windchill Dew Point Humidity Wind Precip. Elev Updated Type
                   

Watches & Warnings

There are currently no watches in effect.